QLK86D YWYY-YMML

Flight info

Callsign QLK86D
Flight time N/A
Altitude 20000
Route WYY V294 ONAGI H215 RAZZI W687 ML
Aircraft DH8D/M-SDFGHRZ/LB1

Departure

Time 2026-04-15 10:45
Airport Wynyard Airport (YWYY)

Arrival

Time N/A
Airport Melbourne Airport (YMML)
Time Latitude Longitude Altitude Speed Heading
2026-04-15 10:24 -40.99390 145.72597 64 ft 0 kts 325°
2026-04-15 10:40 -40.99386 145.72575 64 ft 7 kts 252°
2026-04-15 10:40 -40.99491 145.72546 65 ft 25 kts 187°
2026-04-15 10:40 -40.99586 145.72533 67 ft 0 kts 186°
2026-04-15 10:41 -40.99595 145.72531 67 ft 0 kts 188°
2026-04-15 10:42 -40.99621 145.72527 68 ft 13 kts 187°
2026-04-15 10:42 -40.99675 145.72440 69 ft 13 kts 282°
2026-04-15 10:42 -40.99685 145.72447 69 ft 0 kts 99°
2026-04-15 10:44 -40.99699 145.72551 69 ft 44 kts 99°
2026-04-15 10:44 -40.99802 145.73381 55 ft 132 kts 98°
2026-04-15 10:44 -40.99990 145.74725 298 ft 158 kts 102°
2026-04-15 10:45 -41.00184 145.76257 687 ft 183 kts 96°
2026-04-15 10:45 -41.00070 145.77980 1217 ft 194 kts 68°
2026-04-15 10:45 -40.99404 145.79527 1878 ft 199 kts 52°
2026-04-15 10:45 -40.98401 145.80687 2546 ft 191 kts 14°
2026-04-15 10:46 -40.97111 145.80785 3060 ft 187 kts 350°
2026-04-15 10:46 -40.95805 145.80637 3640 ft 190 kts 349°
2026-04-15 10:46 -40.94505 145.80484 4233 ft 191 kts 349°
2026-04-15 10:46 -40.93174 145.80321 4831 ft 192 kts 348°
2026-04-15 10:47 -40.91850 145.80154 5389 ft 195 kts 348°
2026-04-15 10:47 -40.90514 145.79985 5967 ft 196 kts 347°
2026-04-15 10:47 -40.89144 145.79811 6529 ft 198 kts 347°
2026-04-15 10:47 -40.87769 145.79636 7101 ft 200 kts 346°
2026-04-15 10:48 -40.86368 145.79454 7650 ft 203 kts 346°
2026-04-15 10:48 -40.84978 145.79277 8214 ft 204 kts 346°
2026-04-15 10:48 -40.83559 145.79094 8763 ft 206 kts 346°
2026-04-15 10:48 -40.82141 145.78911 9322 ft 207 kts 346°
2026-04-15 10:49 -40.80690 145.78722 9865 ft 210 kts 345°
2026-04-15 10:49 -40.79234 145.78534 10420 ft 213 kts 345°
2026-04-15 10:49 -40.77700 145.78326 10745 ft 227 kts 345°
2026-04-15 10:49 -40.76115 145.78119 11257 ft 231 kts 345°
2026-04-15 10:50 -40.74512 145.77913 11792 ft 233 kts 345°
2026-04-15 10:50 -40.72873 145.77701 12323 ft 236 kts 345°
2026-04-15 10:50 -40.71251 145.77492 12848 ft 238 kts 345°
2026-04-15 10:50 -40.69587 145.77278 13376 ft 239 kts 345°
2026-04-15 10:51 -40.67934 145.77065 13857 ft 242 kts 345°
2026-04-15 10:51 -40.66267 145.76849 14369 ft 242 kts 345°
2026-04-15 10:51 -40.64567 145.76631 14835 ft 244 kts 344°
2026-04-15 10:51 -40.62891 145.76415 15278 ft 246 kts 345°
2026-04-15 10:52 -40.61177 145.76193 15725 ft 247 kts 344°
2026-04-15 10:52 -40.59452 145.75970 16132 ft 249 kts 344°
2026-04-15 10:52 -40.57719 145.75748 16540 ft 251 kts 344°
2026-04-15 10:52 -40.55998 145.75525 16943 ft 252 kts 344°
2026-04-15 10:53 -40.54232 145.75297 17333 ft 254 kts 344°
2026-04-15 10:53 -40.52483 145.75073 17715 ft 255 kts 344°
2026-04-15 10:53 -40.50701 145.74844 18084 ft 256 kts 344°
2026-04-15 10:53 -40.48914 145.74614 18453 ft 258 kts 344°
2026-04-15 10:54 -40.47122 145.74383 18786 ft 260 kts 344°
2026-04-15 10:54 -40.45324 145.74152 19104 ft 261 kts 344°
2026-04-15 10:54 -40.43524 145.73921 19430 ft 263 kts 344°
2026-04-15 10:54 -40.41698 145.73688 19741 ft 264 kts 344°
2026-04-15 10:55 -40.39865 145.73451 19976 ft 269 kts 344°
2026-04-15 10:55 -40.37963 145.73200 20049 ft 280 kts 344°
2026-04-15 10:55 -40.35958 145.72937 20061 ft 292 kts 345°
2026-04-15 10:55 -40.33898 145.72669 20068 ft 303 kts 345°
2026-04-15 10:56 -40.31766 145.72394 20071 ft 312 kts 346°
2026-04-15 10:56 -40.29595 145.72116 20065 ft 320 kts 346°
2026-04-15 10:56 -40.27356 145.71834 20070 ft 326 kts 346°
2026-04-15 10:56 -40.25073 145.71544 20071 ft 331 kts 346°
2026-04-15 10:57 -40.22766 145.71254 20065 ft 335 kts 346°
2026-04-15 10:57 -40.18074 145.70662 20069 ft 341 kts 346°
2026-04-15 10:57 -40.15702 145.70363 20074 ft 343 kts 347°
2026-04-15 10:58 -40.13322 145.70064 20064 ft 345 kts 347°
2026-04-15 10:58 -40.10912 145.69760 20066 ft 346 kts 347°
2026-04-15 10:58 -40.08515 145.69458 20061 ft 347 kts 347°
2026-04-15 10:58 -40.06110 145.69154 20074 ft 347 kts 347°
2026-04-15 10:59 -40.03698 145.68851 20073 ft 348 kts 347°
2026-04-15 10:59 -40.01299 145.68549 20067 ft 349 kts 347°
2026-04-15 10:59 -39.98865 145.68262 20064 ft 350 kts 348°
2026-04-15 10:59 -39.96417 145.68143 20069 ft 352 kts 351°
2026-04-15 11:00 -39.93972 145.68069 20073 ft 352 kts 351°
2026-04-15 11:00 -39.91518 145.67990 20074 ft 353 kts 351°
2026-04-15 11:00 -39.89066 145.67908 20075 ft 353 kts 351°
2026-04-15 11:00 -39.86608 145.67821 20073 ft 353 kts 351°
2026-04-15 11:01 -39.84162 145.67732 20074 ft 353 kts 351°
2026-04-15 11:01 -39.81675 145.67639 20075 ft 353 kts 351°
2026-04-15 11:01 -39.79225 145.67546 20075 ft 353 kts 351°
2026-04-15 11:01 -39.76784 145.67452 20079 ft 352 kts 351°
2026-04-15 11:02 -39.74344 145.67357 20086 ft 352 kts 351°
2026-04-15 11:02 -39.71900 145.67262 20085 ft 353 kts 351°
2026-04-15 11:02 -39.69428 145.67165 20086 ft 353 kts 351°
2026-04-15 11:02 -39.66985 145.67068 20078 ft 353 kts 351°
2026-04-15 11:03 -39.64504 145.66971 20084 ft 353 kts 351°
2026-04-15 11:03 -39.62082 145.66876 20083 ft 353 kts 351°
2026-04-15 11:03 -39.59598 145.66779 20081 ft 353 kts 351°
2026-04-15 11:03 -39.57140 145.66681 20081 ft 353 kts 351°
2026-04-15 11:04 -39.54686 145.66583 20079 ft 353 kts 351°
2026-04-15 11:04 -39.52257 145.66489 20075 ft 353 kts 351°
2026-04-15 11:04 -39.49795 145.66391 20081 ft 353 kts 351°
2026-04-15 11:04 -39.47339 145.66295 20078 ft 353 kts 351°
2026-04-15 11:05 -39.44884 145.66197 20081 ft 353 kts 351°
2026-04-15 11:05 -39.42400 145.66100 20081 ft 353 kts 351°
2026-04-15 11:05 -39.39946 145.66003 20082 ft 353 kts 351°
2026-04-15 11:05 -39.37495 145.65906 20083 ft 353 kts 351°
2026-04-15 11:06 -39.35039 145.65810 20082 ft 353 kts 351°
2026-04-15 11:06 -39.32592 145.65714 20079 ft 353 kts 351°
2026-04-15 11:06 -39.30117 145.65617 20084 ft 353 kts 351°
2026-04-15 11:06 -39.27655 145.65520 20087 ft 353 kts 351°
2026-04-15 11:07 -39.25201 145.65424 20079 ft 353 kts 351°
2026-04-15 11:07 -39.22758 145.65328 20084 ft 353 kts 351°
2026-04-15 11:07 -39.20316 145.65231 20086 ft 353 kts 351°
2026-04-15 11:07 -39.17832 145.65135 20081 ft 353 kts 351°
2026-04-15 11:08 -39.15374 145.65039 20084 ft 353 kts 352°
2026-04-15 11:08 -39.12944 145.64944 20088 ft 353 kts 351°
2026-04-15 11:08 -39.10493 145.64848 20088 ft 353 kts 352°
2026-04-15 11:08 -39.08027 145.64752 20084 ft 353 kts 352°
2026-04-15 11:09 -39.05583 145.64658 20089 ft 353 kts 352°
2026-04-15 11:09 -39.03111 145.64561 20088 ft 353 kts 352°
2026-04-15 11:09 -39.00651 145.64465 20092 ft 353 kts 352°
2026-04-15 11:09 -38.98176 145.64369 20092 ft 353 kts 352°
2026-04-15 11:10 -38.95717 145.64273 20090 ft 353 kts 352°
2026-04-15 11:10 -38.93261 145.64177 20091 ft 353 kts 352°
2026-04-15 11:10 -38.90810 145.64082 20094 ft 353 kts 352°
2026-04-15 11:10 -38.88365 145.63988 20093 ft 353 kts 352°
2026-04-15 11:11 -38.85894 145.63892 20095 ft 353 kts 352°
2026-04-15 11:11 -38.83518 145.63803 19957 ft 337 kts 352°
2026-04-15 11:11 -38.81202 145.63710 19462 ft 326 kts 351°
2026-04-15 11:11 -38.78970 145.63620 18834 ft 321 kts 351°
2026-04-15 11:12 -38.76754 145.63527 18105 ft 320 kts 351°
2026-04-15 11:12 -38.74521 145.63434 17377 ft 319 kts 352°
2026-04-15 11:12 -38.72332 145.63345 16661 ft 318 kts 352°
2026-04-15 11:12 -38.70085 145.63251 16049 ft 340 kts 352°
2026-04-15 11:13 -38.67652 145.63162 16443 ft 342 kts 353°
2026-04-15 11:13 -38.65332 145.63091 16896 ft 338 kts 353°
2026-04-15 11:13 -38.62972 145.63003 16969 ft 339 kts 352°
2026-04-15 11:13 -38.60591 145.62913 17060 ft 340 kts 352°
2026-04-15 11:14 -38.58208 145.62822 17101 ft 342 kts 352°
2026-04-15 11:14 -38.55835 145.62730 17110 ft 345 kts 352°
2026-04-15 11:14 -38.53408 145.62637 17104 ft 347 kts 352°
2026-04-15 11:14 -38.51002 145.62546 17109 ft 349 kts 352°
2026-04-15 11:15 -38.48549 145.62440 17140 ft 348 kts 351°
2026-04-15 11:15 -38.46241 145.61775 17171 ft 336 kts 332°
2026-04-15 11:15 -38.44197 145.60449 16947 ft 330 kts 327°
2026-04-15 11:15 -38.42195 145.59059 16654 ft 330 kts 326°
2026-04-15 11:16 -38.40185 145.57658 16342 ft 330 kts 327°
2026-04-15 11:16 -38.38167 145.56255 16022 ft 330 kts 326°
2026-04-15 11:16 -38.36157 145.54858 15693 ft 330 kts 327°
2026-04-15 11:16 -38.34136 145.53459 15365 ft 330 kts 327°
2026-04-15 11:17 -38.32122 145.52069 15042 ft 330 kts 327°
2026-04-15 11:17 -38.30099 145.50676 14710 ft 329 kts 327°
2026-04-15 11:17 -38.28083 145.49289 14375 ft 328 kts 327°
2026-04-15 11:17 -38.26091 145.47920 14055 ft 327 kts 327°
2026-04-15 11:18 -38.24077 145.46538 13728 ft 326 kts 327°
2026-04-15 11:18 -38.22091 145.45175 13416 ft 325 kts 327°
2026-04-15 11:18 -38.20104 145.43813 13095 ft 325 kts 327°
2026-04-15 11:18 -38.18102 145.42442 12765 ft 323 kts 327°
2026-04-15 11:19 -38.16128 145.41092 12446 ft 322 kts 327°
2026-04-15 11:19 -38.14171 145.39752 12136 ft 321 kts 328°
2026-04-15 11:19 -38.12199 145.38405 11821 ft 320 kts 327°
2026-04-15 11:19 -38.10247 145.37071 11492 ft 319 kts 328°
2026-04-15 11:20 -38.08295 145.35739 11177 ft 317 kts 328°
2026-04-15 11:20 -38.06362 145.34421 10865 ft 316 kts 328°
2026-04-15 11:20 -38.04418 145.33096 10509 ft 316 kts 328°
2026-04-15 11:20 -38.02495 145.31786 10113 ft 311 kts 328°
2026-04-15 11:21 -38.00588 145.30482 9683 ft 309 kts 328°
2026-04-15 11:21 -37.98723 145.29176 9183 ft 305 kts 328°
2026-04-15 11:21 -37.96892 145.27885 8680 ft 296 kts 327°
2026-04-15 11:21 -37.95150 145.26662 8188 ft 268 kts 328°
2026-04-15 11:22 -37.93624 145.25594 7795 ft 238 kts 328°
2026-04-15 11:22 -37.92216 145.24603 7453 ft 231 kts 328°
2026-04-15 11:22 -37.90777 145.23589 7087 ft 237 kts 328°
2026-04-15 11:22 -37.89323 145.22568 6707 ft 242 kts 329°
2026-04-15 11:23 -37.87855 145.21539 6326 ft 246 kts 329°
2026-04-15 11:23 -37.86330 145.20474 5922 ft 247 kts 329°
2026-04-15 11:23 -37.84854 145.19441 5521 ft 239 kts 329°
2026-04-15 11:23 -37.83432 145.18460 5279 ft 226 kts 329°
2026-04-15 11:24 -37.82062 145.17551 5211 ft 216 kts 330°
2026-04-15 11:24 -37.80759 145.16687 5143 ft 206 kts 330°
2026-04-15 11:24 -37.79503 145.15854 5081 ft 200 kts 330°
2026-04-15 11:24 -37.78241 145.15019 5039 ft 208 kts 330°
2026-04-15 11:25 -37.76926 145.14148 4994 ft 216 kts 330°
2026-04-15 11:25 -37.75572 145.13249 4945 ft 224 kts 330°
2026-04-15 11:25 -37.74164 145.12314 4891 ft 231 kts 330°
2026-04-15 11:25 -37.72730 145.11362 4835 ft 236 kts 330°
2026-04-15 11:26 -37.71236 145.10413 4774 ft 241 kts 333°
2026-04-15 11:26 -37.69723 145.09532 4715 ft 244 kts 333°
2026-04-15 11:26 -37.68200 145.08650 4969 ft 234 kts 333°
2026-04-15 11:26 -37.66753 145.07811 5378 ft 221 kts 333°
2026-04-15 11:27 -37.65403 145.07028 5834 ft 205 kts 333°
2026-04-15 11:27 -37.64126 145.06285 6320 ft 211 kts 333°
2026-04-15 11:27 -37.62756 145.05493 6829 ft 212 kts 332°
2026-04-15 11:27 -37.62320 145.05241 6982 ft 207 kts 332°